GRARBER Weather Reports


time (UTC)temp
F
wind
direction
speed
knots
gust
knots
rain 1hr
in
rain 24hr
in
rain mn
in
humidity
%
barometer
mb
20260507071655 37 220 20.0 26.9 0.00 0.00 0.00 99
20260507061655 37 220 19.1 25.2 0.00 0.00 0.00 99
20260507051655 36 230 20.9 27.8 0.00 0.00 0.00 99
20260507041857 37 230 20.9 26.9 0.00 0.00 0.00 99
20260507031655 37 230 21.7 0.0 0.00 0.00 0.00 99
20260507021653 39 230 19.1 25.2 0.00 0.00 0.00 99
20260507011754 41 220 15.6 24.3 0.00 0.00 0.00 99
20260507001655 41 220 15.6 24.3 0.00 0.00 0.00 99
20260506231655 41 230 13.9 20.0 0.00 0.00 0.00 99
20260506221855 43 240 11.3 0.0 0.00 0.00 0.00 99
20260506211655 43 230 24.3 31.3 0.00 0.00 0.00 99
20260506201656 43 230 22.6 28.7 0.00 0.00 0.00 86
20260506191710 45 260 14.8 22.6 0.00 0.00 0.00 75
20260506181711 43 260 15.6 22.6 0.00 0.00 0.00 99
20260506171654 50 310 7.0 0.0 0.00 0.00 0.00 81
20260506161855 52 340 7.0 0.0 0.00 0.00 0.00 76
20260506151655 54 340 7.0 0.0 0.00 0.00 0.00 71
20260506141655 54 170 4.3 0.0 0.00 0.00 0.00 58
20260506131655 55 170 7.0 0.0 0.00 0.00 0.00 58
20260506121655 55 170 7.0 0.0 0.00 0.00 0.00 54
20260506111656 55 190 7.8 13.9 0.00 0.00 0.00 54
20260506101856 54 190 5.2 0.0 0.00 0.00 0.00 58
20260506091655 46 160 6.1 0.0 0.00 0.00 0.00 81
20260506081655 45 180 7.8 0.0 0.00 0.00 0.00 93